Home > Weather > Santa Rosa > Past weeks

Flag for USA Past Weather in Santa Rosa, California, USA — Yesterday and Last 2 Weeks

Now
66 °F

Sunny.


Feels Like: 66 °F
Forecast: 51 / 93 °F
Wind: No wind

Location: Santa Rosa Sonoma County Airport

Current Time: Jul 23, 2016 at 10:09:23 AM

Latest Report: Jul 23, 2016 at 8:53 AM


Visibility: 9 mi

Pressure: 29.96 "Hg

Humidity: 59%

Dew Point: 51 °F

Location of Santa RosaLocation

Past Weather in Santa Rosa — Graph

°F

Santa Rosa Temperature Yesterday

Maximum temperature yesterday: 93 °F (at 5:53 PM)
Minimum temperature yesterday: 48 °F (at 4:53 AM)
Average temperature yesterday: 69 °F

High & Low Weather Summary for the Past Weeks

 TemperatureHumidityPressure
High96 °F (Jul 13, 4:53 PM)100% (Jul 15, 1:53 AM)30.08 "Hg (Jul 15, 1:53 AM)
Low48 °F (Jul 22, 4:53 AM)14% (Jul 10, 3:53 PM)29.81 "Hg (Jul 16, 5:53 PM)
Average66 °F65%29.95 "Hg
* Reported Jul 8 8:53 AM — Jul 23 8:53 AM, Santa Rosa, Weather by CustomWeather, © 2016

Note: Actual official high and low records may vary slightly from our data, if they occured in-between our weather recording intervals... More about our weather records

Advertising

Santa Rosa Weather History for the Previous 24 Hours

Scroll right to see more
 ConditionsComfort  
Time TempWeatherWind HumidityBarometerVisibility
8:53 AM
Sat, Jul 23
66 °FSunny.No wind59%29.96 "Hg9 mi
7:53 AM59 °FSunny.No wind72%29.95 "Hg10 mi
6:53 AM53 °FClear.No wind86%29.95 "Hg10 mi
5:53 AM51 °FClear.No wind89%29.93 "Hg9 mi
4:53 AM52 °FClear.No wind89%29.93 "Hg9 mi
3:53 AM53 °FClear.No wind86%29.93 "Hg9 mi
2:53 AM54 °FClear.No wind86%29.94 "Hg9 mi
1:53 AM55 °FClear.No wind83%29.95 "Hg10 mi
12:53 AM59 °FClear.No wind72%29.97 "Hg10 mi
11:53 PM
Fri, Jul 22
61 °FClear.3 mph70%29.97 "Hg10 mi
10:53 PM62 °FClear.5 mph65%29.98 "Hg10 mi
9:53 PM66 °FClear.6 mph56%29.98 "Hg10 mi
8:53 PM72 °FSunny.3 mph44%29.96 "Hg10 mi
7:53 PM80 °FSunny.8 mph34%29.95 "Hg10 mi
6:53 PM87 °FSunny.9 mph27%29.95 "Hg10 mi
5:53 PM93 °FSunny.10 mph15%29.96 "Hg10 mi
4:53 PM92 °FSunny.9 mph21%29.98 "Hg10 mi
3:53 PM91 °FSunny.10 mph22%30.00 "Hg10 mi
2:53 PM89 °FSunny.9 mph22%30.02 "Hg10 mi
1:53 PM89 °FSunny.7 mph24%30.04 "Hg10 mi
12:53 PM85 °FSunny.7 mph30%30.06 "Hg10 mi
11:53 AM79 °FSunny.6 mph36%30.08 "Hg10 mi
10:53 AM73 °FSunny.3 mph46%30.08 "Hg10 mi
Weather by CustomWeather, © 2016

See weather overviewHow to use our weather pages